User: anonymous   Login
Location: *
(45.5667°S, 177.5167°W)
Time: 04:55:29
(UTC+00:00)
Language:

Cosmos 2221 - Orbit

View from above orbital plane
View from above orbital plane
View from above satellite
View from above satellite

Ground track
Ground track

The orbit data is extracted from the following two-line orbital elements,

1 22236U 92080A   22222.57992069  .00000664  00000-0  68591-4 0  9990
2 22236  82.5056  82.5078 0015190 235.6472 124.3310 14.88564785585882
Epoch (UTC): 10 August 2022 13:55:05
Eccentricity: 0.0015190
inclination: 82.5056°
perigee height: 592 km
apogee height: 613 km
right ascension of ascending node: 82.5078°
argument of perigee: 235.6472°
revolutions per day: 14.88564785
mean anomaly at epoch: 124.3310°
orbit number at epoch: 58588

The dashed part of the orbit path shows where the satellite is in the earth's shadow,  

DLR